Location: Newark
(6.1731°S, 35.7419°E)
Time: 09:54:25
(UTC+00:00)

Altair - All Passes

Search period start: 17 February 2020 00:00
Search period end: 27 February 2020 00:00
Orbit: 1502 x 1682 km, 47.2° (Epoch: 16 February)

Date Brightness Start Highest point End Pass type
(mag) Time Alt. Az. Time Alt. Az. Time Alt. Az.
17 Feb - 06:53:19 10° NNE 06:57:36 13° NE 07:01:52 10° ENE daylight
17 Feb - 08:52:25 10° NNW 09:02:32 74° NE 09:12:24 10° SE daylight
17 Feb - 10:59:45 10° W 11:07:29 25° SW 11:15:06 10° S daylight
17 Feb - 19:35:05 10° SSW 19:43:59 53° SE 19:52:55 10° ENE visible
17 Feb - 21:40:36 10° WSW 21:48:23 31° NW 21:56:23 10° N night (unlit)
18 Feb - 06:29:46 10° NNE 06:32:19 11° NE 06:34:53 10° ENE daylight
18 Feb - 08:27:17 10° NNW 08:37:20 67° NE 08:47:10 10° SE daylight
18 Feb - 10:34:03 10° W 10:42:13 28° SW 10:50:16 10° S daylight
18 Feb - 19:10:05 10° SSW 19:18:49 47° SE 19:27:34 10° ENE visible
18 Feb - 21:15:08 10° WSW 21:23:15 36° NW 21:31:31 10° NNE visible
19 Feb - 08:02:12 10° NNW 08:12:09 60° NE 08:21:53 10° SE daylight
19 Feb - 10:08:24 10° WNW 10:16:57 32° SW 10:25:24 10° SSE daylight
19 Feb - 18:45:07 10° SSW 18:53:39 42° SE 19:02:11 10° ENE visible
19 Feb - 20:49:43 10° WSW 20:58:06 40° NW 21:06:37 10° NNE visible
20 Feb - 07:37:09 10° NNW 07:46:57 54° NE 07:56:35 10° SE daylight
20 Feb - 09:42:49 10° WNW 09:51:43 35° SW 10:00:29 10° SSE daylight
20 Feb - 18:20:10 10° SSW 18:28:28 37° SE 18:36:45 10° ENE visible
20 Feb - 20:24:21 10° WSW 20:32:57 45° NW 20:41:41 10° NNE visible
21 Feb - 07:12:08 10° NNW 07:21:46 48° NE 07:31:14 10° ESE daylight
21 Feb - 09:17:17 10° WNW 09:26:29 40° SW 09:35:33 10° SSE daylight
21 Feb - 17:55:14 10° SSW 18:03:17 33° SE 18:11:16 10° ENE visible
21 Feb - 19:59:02 10° SW 20:07:49 51° NW 20:16:43 10° NNE visible
22 Feb - 06:47:11 10° NNW 06:56:34 43° NE 07:05:51 10° ESE daylight
22 Feb - 08:51:48 10° WNW 09:01:15 44° SW 09:10:34 10° SSE daylight
22 Feb - 17:30:21 10° SSW 17:38:05 30° SE 17:45:43 10° ENE visible
22 Feb - 19:33:45 10° SW 19:42:41 58° NW 19:51:42 10° NNE visible
23 Feb - 06:22:15 10° NNW 06:31:22 38° NE 06:40:24 10° ESE daylight
23 Feb - 08:26:22 10° WNW 08:36:02 50° SW 08:45:34 10° SSE daylight
23 Feb - 17:05:29 10° S 17:12:51 26° SE 17:20:08 10° E visible
23 Feb - 19:08:30 10° SW 19:17:33 65° NW 19:26:40 10° NNE visible
24 Feb - 05:57:21 10° N 06:06:10 34° NE 06:14:54 10° ESE daylight
24 Feb - 08:00:58 10° NW 08:10:49 55° SW 08:20:32 10° SSE daylight
24 Feb - 10:15:47 10° SW 10:16:51 10° SW 10:17:54 10° SSW daylight
24 Feb - 16:40:40 10° S 16:47:37 23° SE 16:54:29 10° E visible
24 Feb - 18:43:17 10° SW 18:52:25 73° NW 19:01:36 10° NNE visible
24 Feb - 20:54:37 10° WNW 20:57:06 11° NW 20:59:37 10° NNW visible
25 Feb - 05:32:30 10° N 05:40:58 30° NE 05:49:21 10° ESE daylight
25 Feb - 07:35:37 10° NW 07:45:36 62° SW 07:55:28 10° SSE daylight
25 Feb - 09:48:02 10° WSW 09:51:27 12° SW 09:54:51 10° SSW daylight
25 Feb - 16:15:55 10° S 16:22:22 21° SE 16:28:44 10° E visible
25 Feb - 18:18:05 10° SW 18:27:18 81° NW 18:36:30 10° NE visible
25 Feb - 20:27:52 10° WNW 20:31:52 13° NW 20:35:56 10° NNW visible
26 Feb - 05:07:45 10° N 05:15:44 27° NE 05:23:42 10° ESE daylight
26 Feb - 07:10:19 10° NW 07:20:23 68° SW 07:30:23 10° SSE daylight
26 Feb - 09:21:24 10° WSW 09:26:04 14° SW 09:30:43 10° SSW daylight
26 Feb - 15:51:13 10° S 15:57:06 18° SE 16:02:54 10° E daylight
26 Feb - 17:52:55 10° SW 18:02:10 90° NW 18:11:22 10° NE visible
26 Feb - 20:01:39 10° W 20:06:40 16° NW 20:11:45 10° NNW visible
